Change the Weather History Date:

Sunday, April 7, 2013

  Actual Average Record
Temperature  
Mean Temperature 65 °F 64 °F  
Max Temperature 80 °F 78 °F 91 °F (1927)
Min Temperature 50 °F 50 °F 32 °F (1975)
Degree Days  
Heating Degree Days 0    
Month to date heating degree days 21  
Since 1 July heating degree days 1307  
Cooling Degree Days 0    
Month to date cooling degree days 12  
Year to date cooling degree days 80  
Growing Degree Days 15 (Base 50)    
Moisture  
Dew Point 51 °F    
Average Humidity 62    
Maximum Humidity 89    
Minimum Humidity 35    
Precipitation  
Precipitation 0.00 in 0.12 in 2.60 in (1939)
Month to date precipitation 0.25 0.89  
Year to date precipitation 17.81 16.02  
Sea Level Pressure  
Sea Level Pressure 30.13 in    
Wind  
Wind Speed 6 mph (SSE)    
Max Wind Speed 16 mph    
Max Gust Speed 21 mph    
Visibility 10 miles    
Events      
T = Trace of Precipitation, MM = Missing Value Source: NWS Daily Summary

Daily Weather History Graph

Daily Weather History Graph

Search for Another Location

Airport or City:

Trip Planner

Search our weather history database for the weather conditions in past years. The results will help you decide how hot, cold, wet, or windy it might be!

Date:

Astronomy

Apr. 07, 2013 Rise Set
Actual Time 7:19 AM EDT 8:00 PM EDT
Civil Twilight 6:54 AM EDT 8:24 PM EDT
Nautical Twilight 6:26 AM EDT 8:53 PM EDT
Astronomical Twilight 5:56 AM EDT 9:22 PM EDT
Moon 5:25 AM EDT (4/7) 5:39 PM EDT (4/7)
Length of Visible Light 13h 29m
Length of Day
12h 41m
Waning Crescent, 8% of the Moon is Illuminated
Apr 7
Waning Crescent
Apr 10
New
Apr 18
First Quarter
Apr 25
Full
May 2
Last Quarter

Hourly Weather History & Observations

Time (EDT) Temp. Dew Point Humidity Pressure Visibility Wind Dir Wind Speed Gust Speed Precip Events Conditions
12:53 AM 61.0 °F 46.9 °F 60% 30.13 in 10.0 mi ESE 6.9 mph - N/A   Clear
1:53 AM 57.9 °F 48.0 °F 70% 30.14 in 10.0 mi Calm Calm - N/A   Clear
2:53 AM 57.9 °F 48.9 °F 72% 30.13 in 10.0 mi East 3.5 mph - N/A   Clear
3:53 AM 57.0 °F 50.0 °F 77% 30.12 in 10.0 mi Calm Calm - N/A   Clear
4:53 AM 57.0 °F 51.1 °F 81% 30.12 in 10.0 mi East 5.8 mph - N/A   Clear
5:53 AM 52.0 °F 48.0 °F 86% 30.12 in 10.0 mi Calm Calm - N/A   Clear
6:53 AM 51.1 °F 46.9 °F 86% 30.14 in 10.0 mi Calm Calm - N/A   Clear
7:53 AM 52.0 °F 48.0 °F 86% 30.16 in 10.0 mi Calm Calm - N/A   Partly Cloudy
8:53 AM 60.1 °F 54.0 °F 80% 30.17 in 10.0 mi East 8.1 mph - N/A   Mostly Cloudy
9:53 AM 64.0 °F 54.0 °F 70% 30.18 in 10.0 mi East 5.8 mph - N/A   Mostly Cloudy
10:53 AM 72.0 °F 55.9 °F 57% 30.18 in 10.0 mi SSE 9.2 mph - N/A   Partly Cloudy
11:53 AM 75.0 °F 55.0 °F 50% 30.18 in 10.0 mi SSE 12.7 mph - N/A   Mostly Cloudy
12:53 PM 77.0 °F 54.0 °F 45% 30.17 in 10.0 mi SSE 10.4 mph - N/A   Mostly Cloudy
1:53 PM 78.1 °F 53.1 °F 42% 30.15 in 10.0 mi SSE 11.5 mph - N/A   Scattered Clouds
2:53 PM 79.0 °F 51.1 °F 38% 30.12 in 10.0 mi SSE 12.7 mph 16.1 mph N/A   Mostly Cloudy
3:53 PM 79.0 °F 51.1 °F 38% 30.11 in 10.0 mi SSW 10.4 mph - N/A   Scattered Clouds
4:53 PM 78.1 °F 50.0 °F 37% 30.09 in 10.0 mi SSW 11.5 mph 16.1 mph N/A   Partly Cloudy
5:53 PM 78.1 °F 48.9 °F 36% 30.09 in 10.0 mi South 11.5 mph - N/A   Partly Cloudy
6:53 PM 77.0 °F 48.9 °F 37% 30.09 in 10.0 mi South 6.9 mph - N/A   Clear
7:53 PM 73.0 °F 50.0 °F 44% 30.09 in 10.0 mi South 4.6 mph - N/A   Clear
8:53 PM 66.0 °F 52.0 °F 60% 30.11 in 10.0 mi Calm Calm - N/A   Clear
9:53 PM 61.0 °F 52.0 °F 72% 30.11 in 10.0 mi Variable 3.5 mph - N/A   Clear
10:53 PM 59.0 °F 52.0 °F 78% 30.11 in 10.0 mi Calm Calm - N/A   Clear
11:53 PM 57.0 °F 51.1 °F 81% 30.10 in 10.0 mi Calm Calm - N/A   Clear